TimeCDT,TemperatureF,Dew PointF,Humidity,Sea Level PressureIn,VisibilityMPH,Wind Direction,Wind SpeedMPH,Gust SpeedMPH,PrecipitationIn,Events,Conditions,WindDirDegrees,DateUTC
12:53 AM,61.0,43.0,52,29.72,10.0,South,13.8,-,N/A,,Clear,170,2013-05-14 05:53:00
1:53 AM,60.1,44.1,55,29.70,10.0,SE,6.9,-,N/A,,Clear,140,2013-05-14 06:53:00
2:53 AM,60.1,44.1,55,29.69,10.0,South,11.5,-,N/A,,Clear,170,2013-05-14 07:53:00
3:53 AM,57.9,46.0,65,29.70,10.0,SSE,6.9,-,N/A,,Clear,160,2013-05-14 08:53:00
4:53 AM,55.9,46.0,69,29.70,10.0,SSE,4.6,-,N/A,,Clear,160,2013-05-14 09:53:00
5:53 AM,55.9,46.9,72,29.70,10.0,South,4.6,-,N/A,,Clear,180,2013-05-14 10:53:00
6:53 AM,59.0,48.9,69,29.70,10.0,South,6.9,-,N/A,,Clear,180,2013-05-14 11:53:00
7:53 AM,63.0,50.0,63,29.69,10.0,Variable,6.9,-,N/A,,Clear,0,2013-05-14 12:53:00
8:53 AM,66.0,50.0,56,29.69,10.0,South,9.2,-,N/A,,Clear,180,2013-05-14 13:53:00
9:53 AM,70.0,51.1,51,29.69,10.0,South,5.8,-,N/A,,Clear,170,2013-05-14 14:53:00
10:53 AM,75.0,53.1,46,29.69,10.0,South,10.4,-,N/A,,Clear,180,2013-05-14 15:53:00
11:53 AM,80.1,54.0,40,29.69,10.0,Variable,3.5,-,N/A,,Clear,0,2013-05-14 16:53:00
12:53 PM,81.0,55.0,41,29.68,10.0,SE,5.8,-,0.00,Rain,Light Rain,130,2013-05-14 17:53:00
1:53 PM,84.9,52.0,32,29.63,10.0,South,9.2,-,0.00,,Clear,170,2013-05-14 18:53:00
2:53 PM,89.1,50.0,26,29.56,10.0,South,12.7,23.0,N/A,,Clear,180,2013-05-14 19:53:00
3:53 PM,89.1,52.0,28,29.53,10.0,South,17.3,25.3,N/A,,Clear,180,2013-05-14 20:53:00
4:53 PM,89.1,48.9,25,29.49,10.0,South,15.0,24.2,N/A,,Clear,180,2013-05-14 21:53:00
5:53 PM,88.0,51.1,28,29.44,10.0,South,17.3,26.5,0.00,,Clear,170,2013-05-14 22:53:00
6:53 PM,84.0,55.0,37,29.44,10.0,South,17.3,-,N/A,,Clear,180,2013-05-14 23:53:00
7:53 PM,82.0,55.9,41,29.44,10.0,South,10.4,-,N/A,,Clear,170,2013-05-15 00:53:00
8:53 PM,78.1,55.9,46,29.47,10.0,South,8.1,-,N/A,,Clear,190,2013-05-15 01:53:00
9:53 PM,72.0,55.0,55,29.50,10.0,Variable,3.5,-,N/A,,Clear,0,2013-05-15 02:53:00
10:53 PM,81.0,39.9,23,29.53,10.0,WNW,16.1,24.2,N/A,,Clear,290,2013-05-15 03:53:00
11:53 PM,77.0,35.1,22,29.56,10.0,WNW,11.5,-,N/A,,Clear,290,2013-05-15 04:53:00